Wetbulb
55.81 55.28 54.92 54.85 54.53 54.36 54.45 54.43 54.41 54.54 54.81 54.90 54.81 54.60 54.52 54.58 54.65 54.16 53.21 53.72 54.38 56.55 56.63 55.59 54.24 53.73 51.74 47.59 44.92 50.18 56.94 54.35 53.44 56.82 53.23 51.91 48.16 47.32 44.37 46.96 47.77 45.40 46.69 48.39 49.12 48.78 48.01
54.87 54.75 54.46 54.26 54.32 54.05 54.27 54.37 54.24 54.33 54.55 54.59 54.40 54.24 54.19 54.15 54.11 53.68 52.64 54.09 56.90 56.78 57.03 54.85 54.14 54.28 49.57 40.21 51.52 49.61 48.26 49.42 50.29 51.73 52.76 52.52 49.59 49.10 45.77 44.69 44.38 46.88 46.76 46.70 47.78 46.94 46.54
54.77 54.29 53.94 54.03 53.67 54.03 54.16 54.10 54.01 54.15 54.23 54.30 54.07 53.87 53.77 53.66 53.71 53.18 52.22 54.25 56.93 56.59 55.78 54.48 54.27 52.64 46.02 42.35 50.33 47.90 46.84 46.56 51.79 50.59 48.24 53.22 51.82 48.10 47.23 43.23 46.64 45.09 40.44 42.81 43.54 44.66 44.01
54.21 53.80 53.64 53.49 53.76 53.79 53.89 53.92 53.85 53.95 53.99 53.85 53.65 53.40 53.37 53.17 53.01 52.64 51.67 53.18 55.25 56.41 56.46 54.69 54.79 52.58 41.70 48.65 49.76 45.06 45.08 43.96 48.98 51.26 51.01 53.60 54.03 49.91 46.61 47.55 44.75 40.64 40.07 34.38 41.49 42.99 43.75
53.63 53.49 53.23 53.20 53.39 53.61 53.77 53.70 53.69 53.70 53.65 53.44 53.13 52.95 53.03 52.76 52.36 51.70 51.91 51.83 51.90 54.07 53.93 54.96 50.84 48.98 37.79 50.13 43.85 43.91 43.31 41.11 44.65 50.43 51.63 51.91 51.85 46.98 46.17 40.20 36.77 37.62 31.66 33.46 36.33 43.64 42.82
52.95 52.93 52.68 52.97 53.07 53.40 53.55 53.54 53.46 53.35 53.22 52.85 52.58 52.54 52.38 52.27 51.65 51.66 52.22 50.59 51.35 52.55 52.01 51.62 45.24 40.81 40.10 37.39 44.87 42.29 43.07 42.67 40.72 42.03 46.39 48.14 45.95 40.54 40.72 37.90 28.72 31.55 32.53 34.28 33.93 40.18 40.11
52.38 52.39 52.43 52.55 52.95 52.98 53.18 53.17 53.06 52.99 52.78 52.45 52.25 52.03 52.04 51.85 50.56 51.15 48.76 47.62 41.69 41.45 43.52 37.14 36.16 36.04 38.50 41.17 44.71 39.99 41.94 40.24 39.76 37.94 31.74 35.24 34.69 31.19 34.41 35.11 33.15 32.81 30.77 29.76 33.01 37.09 35.75
51.83 52.16 52.19 52.46 52.42 52.63 52.65 52.67 52.62 52.62 52.51 52.16 51.80 51.51 51.72 50.82 49.63 50.77 45.25 40.70 39.96 41.09 36.85 42.90 39.66 38.53 40.61 40.68 34.70 37.66 41.04 34.55 34.07 29.37 32.98 30.53 27.25 31.85 33.69 33.20 30.94 29.82 27.95 27.37 30.39 34.12 32.46
51.29 51.79 51.87 52.04 52.04 52.18 52.20 52.23 52.34 52.24 52.01 51.54 51.23 50.98 51.15 50.13 49.98 46.93 40.09 39.99 46.41 45.97 37.95 38.24 39.41 36.42 37.81 39.13 33.98 34.38 37.52 35.31 31.69 29.40 28.97 25.68 29.32 33.02 30.71 28.54 26.58 26.75 22.36 23.89 25.73 29.20 32.33
50.96 51.15 51.59 51.43 51.64 51.71 51.72 51.84 51.50 51.56 51.22 50.84 50.64 50.31 50.44 50.33 45.92 43.55 38.75 42.83 47.50 46.87 31.96 31.99 32.92 35.17 38.18 37.71 33.49 38.73 39.00 35.61 32.48 27.52 28.62 27.85 32.21 29.79 27.74 26.79 26.48 20.25 27.47 26.51 25.46 21.79 16.55
50.45 50.77 50.77 51.05 51.13 51.19 51.55 51.18 51.18 50.94 50.54 50.31 49.93 49.21 49.74 48.64 42.99 38.68 40.13 44.23 47.79 43.30 21.95 31.71 32.62 40.46 38.15 32.79 33.45 33.63 39.16 35.61 28.91 27.82 28.04 24.56 26.53 26.73 25.78 26.37 28.19 22.41 29.41 26.48 25.40 21.52 20.80
50.29 50.26 50.21 50.64 50.55 51.05 50.68 50.64 50.47 50.17 49.86 49.72 48.95 47.98 49.12 44.42 43.48 41.88 43.06 46.54 43.87 32.08 15.29 27.51 32.46 30.55 30.85 31.83 31.85 33.97 33.45 36.50 35.38 28.38 28.64 26.26 32.09 30.64 28.61 29.20 28.71 29.21 25.92 24.79 23.70 20.40 10.95
50.55 49.60 49.88 49.98 50.40 50.06 50.09 49.99 49.81 49.48 49.19 49.08 47.96 46.93 45.63 43.65 37.29 43.23 42.40 42.73 30.45 21.07 30.88 24.49 25.30 29.49 28.89 26.62 27.93 29.44 27.67 26.01 21.83 17.24 17.44 23.66 24.94 29.38 31.14 24.06 27.53 25.68 18.90 10.04 8.63 8.94 10.84
49.53 49.09 49.24 49.59 49.43 49.37 49.46 49.45 49.12 48.66 48.38 48.27 47.50 46.40 45.53 42.64 43.31 42.87 40.38 33.14 20.29 25.33 23.82 29.36 27.58 28.44 24.55 26.90 26.01 26.99 24.83 21.40 26.12 23.06 17.52 14.01 12.87 23.64 27.33 23.65 20.74 20.96 19.11 12.50 5.25 7.07 10.05
49.17 48.83 48.56 48.89 48.79 48.77 48.84 48.85 48.31 47.94 48.08 47.36 46.98 44.25 40.44 41.48 43.34 42.36 35.52 23.27 20.68 23.14 26.75 24.90 26.72 22.36 22.50 25.78 24.89 24.55 23.32 21.73 24.04 24.11 11.86 13.73 14.52 24.59 26.81 28.60 26.85 20.56 16.54 22.55 9.68 15.01 10.76
49.24 48.26 48.24 47.90 47.75 47.98 48.10 48.07 47.78 47.47 47.29 46.71 41.96 40.90 37.74 42.64 43.64 40.21 30.35 23.55 24.47 28.82 28.75 27.53 19.72 23.55 17.90 21.26 20.94 21.39 21.23 25.45 23.85 26.10 25.62 18.26 10.85 21.89 25.70 28.07 28.26 24.62 24.35 14.06 13.62 1.50 3.46
49.35 48.12 47.28 46.82 46.96 47.07 47.12 47.33 47.12 46.96 46.64 46.63 42.09 35.81 38.65 42.83 42.13 33.37 23.24 23.17 26.49 30.94 30.31 25.28 22.44 20.82 21.70 20.09 20.60 19.84 21.38 23.87 25.10 23.38 24.41 20.71 15.33 16.63 22.33 17.95 13.95 17.75 8.32 11.81 9.89 8.53 3.18
49.28 48.23 46.41 46.04 46.25 46.31 46.26 46.42 46.41 46.17 45.96 45.79 38.98 30.18 39.49 41.17 29.29 28.73 22.69 26.18 29.64 28.05 30.82 28.28 27.33 25.02 21.27 19.90 17.44 18.45 20.41 22.48 25.75 23.79 15.99 21.37 18.24 10.32 15.30 19.81 18.92 14.46 7.95 7.20 4.24 2.91 2.59
49.08 48.19 46.10 45.44 45.54 45.63 45.77 45.70 45.99 45.29 44.93 40.40 33.24 32.18 39.80 38.53 24.01 23.27 26.77 26.54 27.84 25.77 26.57 25.64 24.35 25.37 23.29 18.79 9.38 19.25 19.97 25.39 24.39 21.85 19.09 22.63 14.31 7.53 11.77 17.59 18.45 10.66 9.40 8.76 7.32 8.03 0.81
48.83 47.96 46.21 45.22 45.01 45.33 45.41 45.05 45.29 44.36 44.70 41.09 35.04 28.16 31.49 32.78 31.79 26.05 23.53 22.58 22.30 28.01 27.08 27.24 24.91 24.35 19.16 16.05 19.54 12.25 17.09 21.36 23.72 21.37 25.74 21.91 17.92 10.87 6.50 7.54 10.43 4.52 5.80 7.06 6.24 2.82 -1.73
48.37 47.53 46.32 45.27 44.74 45.07 44.82 44.49 44.59 43.47 43.71 40.74 35.06 27.61 29.84 24.63 25.17 25.02 25.06 23.39 20.76 19.63 25.15 26.31 21.96 19.69 14.33 4.94 13.78 13.87 16.19 17.11 20.99 20.05 17.86 13.74 7.24 9.28 7.77 6.74 5.87 3.61 3.10 2.52 0.72 1.19 -3.53
48.28 47.24 46.36 45.32 44.57 44.75 44.31 43.49 43.67 42.54 43.02 37.75 31.67 28.70 30.52 26.26 26.06 23.27 23.35 18.13 19.41 19.91 20.07 20.09 15.54 18.01 17.73 7.83 10.88 4.45 14.29 14.68 7.40 12.68 10.37 11.40 4.50 8.18 2.52 5.93 5.30 -2.18 0.96 1.83 0.74 -0.98 -2.81
47.77 46.98 46.44 45.26 44.39 43.72 42.87 43.48 42.41 42.23 41.62 35.02 35.59 35.56 31.24 25.97 24.11 22.11 18.65 18.94 20.02 20.47 21.82 21.30 16.30 15.27 13.85 15.94 17.45 20.01 18.03 12.83 7.85 4.43 0.25 -2.60 -2.51 1.53 3.43 6.45 4.34 -5.30 -7.77 -1.21 0.51 -3.42 -7.93
47.24 46.67 46.33 44.71 43.04 42.13 42.17 42.88 42.11 42.72 42.37 38.58 36.58 34.53 29.77 20.45 23.61 21.72 20.69 20.06 18.58 19.03 10.46 17.57 20.09 12.27 18.44 22.09 21.68 19.50 12.15 8.58 8.01 0.74 6.44 -8.59 -9.22 2.54 -0.04 0.66 -12.86 -2.43 2.13 -0.67 -1.62 -2.88 -6.29
47.45 46.83 45.61 43.53 42.09 41.31 42.29 42.14 42.04 42.70 43.44 38.09 37.08 33.44 29.54 19.54 22.35 19.85 18.80 17.26 17.96 16.79 15.43 18.26 19.50 19.13 21.18 18.58 11.01 7.19 8.85 6.05 5.27 4.53 -0.97 -2.94 -7.47 -6.18 -4.70 -1.91 -4.18 -2.78 -2.45 -8.70 -13.02 -9.32 -8.83
47.12 46.25 44.65 42.52 41.57 41.32 42.33 41.78 41.61 41.13 39.83 34.12 31.91 34.88 30.92 20.28 14.84 19.37 17.38 15.81 11.04 12.55 13.62 17.82 20.30 20.37 20.64 16.36 11.32 -1.45 -2.14 1.52 -2.15 1.29 10.28 3.37 -7.56 -5.77 -8.66 -12.35 -12.98 -6.95 -1.87 -5.50 -11.08 -15.81 -5.33
46.87 45.36 43.53 42.31 41.75 41.83 42.71 42.29 41.22 40.51 39.35 34.12 29.48 32.49 26.91 15.51 15.14 15.15 13.20 11.37 14.56 11.99 10.33 13.56 12.20 13.08 19.15 10.04 4.49 -1.08 -2.17 -0.99 -8.75 -6.42 -5.08 -5.56 -10.22 -11.45 -9.20 -15.94 -11.36 -5.10 -2.18 -7.42 -14.96 -9.24 -2.70
45.83 44.49 43.02 42.34 42.39 43.23 42.07 41.62 40.25 39.00 37.10 31.08 27.00 30.73 26.39 16.35 12.97 14.01 15.55 11.64 13.07 11.50 7.78 7.41 9.82 10.13 10.50 4.50 5.93 3.38 -2.53 -3.79 -5.96 -6.63 -9.67 -11.06 -15.60 -10.86 -12.45 -17.13 -15.05 2.58 -1.57 -9.82 -5.81 -6.91 -5.39
45.12 43.50 42.55 42.41 43.16 41.62 42.06 40.73 39.97 37.91 36.58 33.31 23.74 27.37 26.77 18.81 11.59 17.83 16.15 15.44 12.23 9.75 9.90 9.11 7.25 3.93 5.83 5.48 5.49 3.27 1.18 -1.66 -5.50 -8.17 -3.34 -9.96 -8.10 -9.94 -8.18 -5.23 -6.67 -3.79 -3.61 -5.88 -6.16 -5.03 -2.74
MSLP
1018.68 1018.48 1018.29 1018.04 1017.81 1017.58 1017.28 1017.00 1016.72 1016.34 1015.83 1015.32 1014.86 1014.38 1013.90 1013.43 1012.82 1012.19 1011.62 1011.04 1010.43 1010.03 1009.67 1009.61 1009.82 1010.05 1010.17 1009.42 1010.00 1009.53 1009.09 1008.66 1008.04 1007.48 1007.92 1007.94 1007.82 1007.63 1006.84 1006.18 1006.08 1005.14 1004.72 1004.34 1003.99 1003.70 1003.35
1018.75 1018.62 1018.42 1018.20 1017.97 1017.72 1017.38 1017.09 1016.75 1016.37 1015.87 1015.38 1014.99 1014.46 1013.87 1013.26 1012.70 1012.06 1011.47 1010.92 1010.42 1009.87 1009.55 1009.53 1009.79 1010.02 1009.80 1009.81 1009.96 1009.76 1009.08 1008.53 1008.13 1007.79 1007.48 1007.34 1007.28 1007.02 1006.57 1006.16 1005.77 1004.97 1004.45 1003.92 1003.66 1003.36 1003.22
1018.93 1018.76 1018.51 1018.22 1018.07 1017.82 1017.48 1017.15 1016.82 1016.41 1015.92 1015.45 1015.03 1014.57 1014.04 1013.34 1012.70 1012.08 1011.61 1011.15 1010.57 1010.10 1009.94 1009.77 1009.84 1009.90 1009.33 1010.82 1010.25 1010.06 1009.48 1008.74 1008.18 1008.05 1007.82 1007.39 1007.27 1007.22 1006.54 1006.10 1005.30 1005.37 1004.40 1003.86 1003.42 1003.64 1003.27
1018.97 1018.84 1018.62 1018.35 1018.12 1017.88 1017.58 1017.22 1016.88 1016.52 1016.04 1015.52 1015.07 1014.62 1014.15 1013.48 1012.75 1012.11 1011.71 1011.34 1010.88 1010.54 1010.40 1010.22 1010.15 1009.82 1010.30 1010.85 1010.52 1010.18 1009.56 1008.82 1008.16 1007.91 1007.69 1007.61 1007.29 1007.24 1007.21 1006.99 1006.30 1006.26 1005.63 1004.53 1003.75 1003.41 1003.08
1018.99 1018.96 1018.74 1018.53 1018.16 1017.94 1017.62 1017.32 1016.96 1016.51 1016.05 1015.66 1015.20 1014.61 1014.05 1013.45 1012.78 1012.05 1011.60 1011.29 1010.85 1010.69 1010.56 1010.27 1010.21 1009.69 1010.69 1010.42 1010.59 1010.66 1010.22 1009.29 1008.20 1007.51 1007.42 1007.43 1007.82 1007.88 1008.03 1008.12 1007.81 1007.25 1005.72 1005.43 1004.51 1004.45 1003.72
1019.14 1018.98 1018.92 1018.58 1018.28 1017.98 1017.71 1017.38 1017.05 1016.60 1016.11 1015.67 1015.27 1014.55 1014.03 1013.49 1012.98 1011.96 1011.16 1011.12 1010.78 1010.21 1010.55 1009.82 1010.04 1010.26 1011.49 1011.72 1011.22 1011.14 1010.39 1009.29 1008.58 1007.75 1007.28 1007.65 1008.24 1008.36 1008.43 1008.70 1008.41 1008.26 1007.35 1006.50 1005.61 1005.02 1005.07
1019.33 1018.98 1018.93 1018.68 1018.41 1018.12 1017.85 1017.54 1017.12 1016.74 1016.24 1015.72 1015.22 1014.62 1013.98 1013.50 1013.03 1012.09 1010.99 1011.23 1011.56 1011.37 1011.55 1012.05 1012.53 1012.71 1012.67 1012.48 1011.36 1011.82 1011.23 1009.90 1009.24 1008.58 1008.42 1008.34 1008.61 1009.17 1009.10 1010.02 1010.01 1010.01 1009.44 1008.26 1007.81 1007.14 1007.09
1019.38 1019.06 1018.91 1018.78 1018.56 1018.32 1017.97 1017.61 1017.18 1016.79 1016.35 1015.88 1015.27 1014.52 1013.89 1013.43 1013.05 1012.54 1012.01 1012.55 1014.04 1014.34 1013.41 1012.81 1012.92 1013.10 1013.03 1012.49 1012.18 1012.19 1011.90 1011.13 1010.46 1010.11 1009.71 1009.55 1009.28 1009.67 1009.92 1010.27 1010.29 1009.98 1009.70 1009.48 1009.12 1008.41 1008.48
1019.44 1019.11 1018.91 1018.88 1018.72 1018.43 1018.14 1017.76 1017.29 1016.87 1016.43 1015.88 1015.29 1014.55 1013.80 1013.37 1013.07 1012.91 1013.32 1014.34 1014.36 1014.21 1013.47 1013.56 1013.28 1013.45 1013.15 1012.70 1012.91 1012.74 1012.37 1012.09 1011.53 1011.47 1011.57 1011.17 1010.84 1010.60 1010.64 1010.79 1010.70 1010.58 1010.60 1010.34 1010.01 1009.53 1009.41
1019.41 1019.14 1018.97 1018.96 1018.85 1018.61 1018.28 1017.85 1017.36 1016.97 1016.45 1015.89 1015.31 1014.65 1013.93 1013.02 1013.35 1012.86 1013.79 1014.64 1014.37 1014.12 1013.61 1014.18 1013.85 1014.07 1013.30 1012.55 1013.03 1013.41 1012.85 1013.16 1012.81 1012.84 1012.39 1011.94 1011.21 1011.44 1011.46 1011.51 1012.06 1011.86 1011.51 1010.90 1010.54 1010.44 1010.53
1019.28 1019.21 1019.10 1019.08 1018.94 1018.74 1018.36 1017.96 1017.41 1016.98 1016.49 1015.99 1015.44 1014.73 1014.10 1013.48 1013.75 1014.11 1015.01 1014.72 1014.47 1014.35 1014.69 1015.25 1014.73 1014.53 1013.85 1014.30 1014.55 1014.27 1013.21 1012.88 1013.42 1013.98 1013.66 1013.25 1012.49 1011.97 1011.85 1012.43 1012.31 1011.94 1011.34 1011.41 1011.11 1011.05 1011.54
1019.35 1019.25 1019.19 1019.17 1018.97 1018.74 1018.51 1017.99 1017.46 1017.12 1016.55 1015.86 1015.46 1015.04 1014.18 1014.09 1014.23 1015.09 1014.90 1014.69 1014.68 1014.61 1015.72 1015.84 1015.58 1015.24 1014.75 1015.00 1015.03 1014.88 1014.09 1013.36 1013.93 1014.70 1014.54 1014.31 1013.12 1012.53 1012.82 1012.95 1012.67 1012.27 1012.13 1011.94 1011.36 1011.46 1012.55
1019.35 1019.30 1019.28 1019.20 1018.94 1018.77 1018.54 1018.08 1017.57 1017.03 1016.46 1015.98 1015.49 1015.16 1014.64 1014.59 1015.06 1014.72 1014.84 1014.67 1014.92 1015.41 1016.48 1017.00 1016.75 1016.16 1015.65 1015.81 1015.76 1015.38 1015.10 1014.98 1016.09 1016.06 1015.96 1015.26 1014.38 1013.58 1013.28 1013.78 1012.91 1012.73 1013.09 1013.03 1012.51 1012.27 1013.86
1019.38 1019.23 1019.32 1019.12 1018.99 1018.78 1018.50 1018.25 1017.59 1016.91 1016.41 1015.96 1015.59 1015.25 1014.95 1014.86 1014.77 1014.51 1014.51 1014.54 1015.78 1017.38 1017.80 1017.94 1017.76 1016.83 1016.60 1016.61 1016.68 1016.55 1016.56 1016.55 1017.36 1018.15 1017.92 1017.25 1015.72 1014.98 1014.78 1014.37 1013.65 1013.54 1014.14 1014.26 1013.95 1014.74 1015.89
1019.34 1019.25 1019.33 1019.10 1019.05 1018.84 1018.57 1018.24 1017.51 1016.87 1016.35 1015.77 1015.44 1015.04 1015.10 1014.85 1014.24 1014.37 1014.70 1015.64 1018.34 1018.96 1019.22 1018.94 1018.01 1017.64 1017.91 1017.84 1017.61 1017.80 1017.76 1017.66 1018.50 1019.24 1019.94 1019.01 1017.68 1016.49 1015.35 1014.22 1014.36 1014.19 1014.86 1015.11 1015.48 1016.18 1017.33
1019.13 1019.23 1019.29 1019.12 1019.10 1018.94 1018.71 1018.27 1017.48 1016.73 1016.26 1015.75 1015.32 1015.01 1015.55 1014.94 1014.07 1014.12 1015.20 1017.66 1019.13 1019.67 1019.69 1019.38 1018.99 1018.98 1019.10 1019.05 1018.99 1019.09 1018.67 1019.01 1019.54 1020.04 1020.35 1020.24 1019.03 1017.15 1015.79 1015.28 1015.10 1015.56 1017.10 1016.98 1017.72 1018.64 1019.98
1018.98 1019.19 1019.28 1019.23 1019.29 1019.01 1018.86 1018.35 1017.52 1016.73 1016.13 1015.67 1015.32 1015.29 1015.87 1015.21 1014.50 1015.13 1017.02 1018.93 1019.67 1020.01 1020.23 1020.23 1020.24 1020.15 1020.36 1020.48 1020.68 1020.41 1019.83 1020.74 1020.83 1021.04 1020.95 1020.81 1020.23 1018.41 1017.60 1018.39 1018.68 1018.18 1020.16 1020.81 1020.83 1020.75 1021.88
1018.83 1019.15 1019.24 1019.34 1019.45 1019.11 1018.96 1018.45 1017.63 1016.96 1016.07 1015.33 1015.47 1016.10 1016.40 1015.55 1015.99 1017.39 1019.03 1019.83 1020.54 1020.62 1020.60 1020.59 1020.77 1021.02 1021.75 1021.84 1021.75 1021.62 1021.46 1021.74 1022.16 1021.91 1021.69 1021.49 1021.20 1020.42 1020.42 1020.92 1021.55 1022.04 1023.65 1024.15 1024.16 1023.69 1024.57
1018.79 1019.07 1019.25 1019.40 1019.38 1019.20 1019.01 1018.49 1017.86 1017.30 1016.73 1016.64 1016.70 1017.12 1016.83 1015.90 1017.49 1019.14 1020.08 1020.72 1021.15 1021.35 1021.37 1021.47 1021.82 1022.49 1023.11 1023.13 1023.25 1022.73 1022.59 1022.47 1022.75 1022.93 1023.22 1023.06 1022.43 1022.44 1021.86 1022.51 1022.34 1024.18 1025.86 1026.51 1026.45 1026.60 1027.22
1018.75 1018.93 1019.32 1019.35 1019.40 1019.30 1019.02 1018.58 1018.02 1017.51 1017.06 1017.02 1017.15 1017.76 1018.08 1018.23 1018.91 1019.67 1020.78 1021.56 1021.82 1022.10 1022.09 1022.32 1022.80 1023.63 1024.25 1024.56 1024.64 1024.48 1024.26 1024.14 1024.21 1024.37 1024.27 1024.35 1024.40 1024.87 1025.42 1025.89 1026.53 1027.26 1028.12 1028.40 1027.97 1028.72 1030.02
1018.66 1018.86 1019.27 1019.31 1019.48 1019.36 1019.05 1018.68 1018.21 1017.76 1017.30 1017.39 1017.91 1019.15 1019.62 1019.97 1020.65 1021.14 1021.67 1022.72 1022.97 1023.14 1023.26 1023.27 1023.91 1024.95 1025.58 1026.04 1026.07 1025.94 1026.08 1026.08 1025.65 1026.19 1026.20 1026.65 1026.72 1026.85 1027.56 1028.12 1028.62 1029.63 1030.26 1030.70 1030.93 1031.77 1032.39
1018.54 1018.87 1019.09 1019.34 1019.46 1019.31 1019.14 1018.80 1018.47 1018.02 1017.54 1017.70 1018.68 1019.31 1020.17 1021.19 1021.61 1022.41 1023.08 1023.92 1024.13 1024.41 1024.44 1024.74 1025.61 1026.04 1026.31 1027.09 1027.72 1027.94 1028.07 1028.10 1028.87 1028.37 1028.66 1028.81 1028.59 1028.36 1028.92 1029.56 1030.30 1031.45 1032.20 1032.49 1033.19 1033.92 1034.49
1018.37 1018.81 1018.98 1019.27 1019.39 1019.39 1019.26 1018.91 1018.56 1018.11 1017.86 1018.26 1019.04 1019.23 1020.05 1021.96 1022.47 1023.20 1024.29 1024.77 1025.14 1025.50 1025.55 1026.14 1026.49 1026.87 1027.22 1027.82 1028.24 1028.51 1028.85 1029.62 1030.52 1031.01 1031.20 1031.21 1031.12 1030.14 1029.84 1030.51 1031.31 1032.98 1034.01 1034.59 1034.89 1035.70 1036.64
1018.24 1018.66 1018.87 1019.20 1019.41 1019.43 1019.32 1019.09 1018.83 1018.23 1017.74 1017.84 1018.65 1019.55 1020.72 1022.60 1023.23 1024.23 1025.13 1025.66 1026.14 1026.44 1026.78 1027.02 1026.97 1027.52 1028.18 1028.15 1028.49 1029.14 1030.10 1030.87 1031.42 1032.15 1032.40 1032.69 1032.86 1031.64 1031.59 1031.95 1033.05 1034.23 1034.79 1035.55 1036.24 1036.46 1037.17
1018.16 1018.57 1018.88 1019.23 1019.42 1019.50 1019.34 1019.35 1019.19 1018.86 1018.48 1018.81 1019.38 1020.03 1021.02 1023.25 1024.53 1025.64 1026.27 1026.80 1027.07 1027.52 1027.58 1027.61 1027.73 1028.23 1028.24 1028.46 1029.02 1029.68 1030.84 1031.70 1032.17 1032.81 1033.31 1033.47 1033.73 1033.74 1033.16 1033.32 1034.42 1034.86 1035.68 1036.78 1037.83 1037.39 1037.43
1018.17 1018.51 1018.91 1019.23 1019.49 1019.52 1019.41 1019.58 1019.67 1019.64 1019.61 1019.99 1020.73 1020.52 1021.46 1023.71 1026.53 1026.83 1027.22 1027.88 1028.15 1028.45 1028.56 1028.31 1028.35 1028.55 1028.43 1028.68 1029.02 1030.57 1031.71 1032.80 1033.30 1033.24 1033.12 1033.94 1034.17 1035.13 1034.52 1034.95 1035.47 1035.68 1036.55 1037.48 1038.24 1038.21 1037.42
1018.03 1018.53 1018.93 1019.23 1019.49 1019.44 1019.48 1019.74 1019.98 1019.99 1019.98 1020.46 1021.78 1021.57 1022.12 1025.19 1027.78 1028.03 1028.47 1028.94 1029.11 1029.58 1029.57 1029.36 1029.63 1029.24 1028.74 1029.24 1030.19 1031.55 1032.58 1033.79 1034.77 1035.27 1035.44 1036.02 1036.26 1036.55 1036.52 1036.05 1036.02 1036.16 1036.99 1037.77 1038.44 1038.20 1037.25
1018.04 1018.50 1018.90 1019.23 1019.41 1019.45 1019.76 1019.99 1020.28 1020.41 1020.54 1021.01 1022.56 1022.08 1022.48 1025.88 1028.50 1028.83 1029.22 1029.74 1029.90 1030.31 1030.38 1030.73 1030.88 1030.48 1030.14 1030.57 1031.30 1032.42 1033.38 1034.43 1035.50 1036.24 1037.06 1038.06 1038.51 1037.99 1037.30 1036.78 1036.48 1036.39 1037.45 1037.81 1037.14 1036.59 1036.63
1018.02 1018.53 1018.93 1019.20 1019.26 1019.59 1019.91 1020.33 1020.59 1020.79 1020.85 1021.08 1022.69 1023.29 1023.55 1025.52 1028.94 1029.28 1029.94 1030.23 1030.31 1030.93 1031.10 1031.16 1031.45 1031.65 1031.68 1032.03 1032.52 1033.02 1034.00 1035.03 1036.10 1037.13 1037.63 1038.55 1038.65 1038.75 1038.08 1036.51 1035.78 1035.58 1035.92 1035.65 1035.71 1035.89 1035.73
Wind_Speed
9 11 11 12 12 13 13 14 15 17 18 18 19 19 20 20 20 21 22 22 15 13 12 6 5 5 5 4 7 12 14 13 12 5 12 12 11 13 21 11 20 26 25 24 23 21 22
9 10 11 11 12 13 13 14 16 17 18 19 20 20 21 22 22 21 23 18 13 12 8 5 6 6 6 7 6 14 13 11 10 10 9 10 12 12 16 20 23 18 20 21 19 19 15
8 10 10 11 12 13 14 15 16 17 18 19 20 21 21 22 22 21 22 13 12 13 9 7 8 8 17 7 12 14 16 14 7 5 10 11 10 13 10 14 19 19 26 22 20 18 21
8 9 10 11 12 12 13 14 16 17 18 19 20 21 20 20 22 19 20 9 8 7 7 2 5 8 7 11 8 18 17 17 11 9 7 9 11 11 15 14 21 21 22 21 3 16 19
8 9 10 11 11 12 14 15 16 18 19 20 21 21 20 20 21 19 18 5 7 4 4 6 5 4 5 9 16 18 16 19 13 8 5 8 2 4 4 6 11 9 19 21 21 16 15
7 8 10 10 11 12 14 16 17 18 19 20 21 21 20 18 16 19 18 4 7 8 7 4 11 4 13 14 10 20 23 21 10 10 7 4 3 6 4 6 13 13 13 12 19 11 21
7 8 9 10 11 13 14 16 17 18 19 21 22 21 18 16 12 17 9 2 3 3 13 9 10 11 9 17 7 17 18 18 9 8 6 7 4 8 13 1 0 8 9 15 13 15 8
6 7 8 10 11 13 14 15 17 18 19 20 21 21 18 16 8 10 8 7 3 2 8 8 12 11 13 16 11 19 18 13 11 12 14 10 8 12 13 12 14 16 12 13 14 13 8
5 6 8 10 11 13 14 15 16 18 19 20 21 19 19 16 7 3 14 9 2 3 2 5 9 12 13 12 10 18 17 11 11 14 14 9 9 15 17 16 17 11 10 13 10 12 10
4 5 7 9 11 12 14 14 16 17 19 20 20 17 18 22 1 5 5 8 2 3 4 6 9 8 11 12 4 16 12 8 9 12 13 7 14 14 13 9 11 9 16 18 15 10 4
3 4 6 8 10 12 14 15 16 17 18 19 19 17 15 13 4 4 6 5 1 2 0 5 5 5 8 14 11 17 16 3 12 15 13 10 18 13 9 11 14 10 15 14 16 14 11
3 3 5 8 10 13 15 15 16 17 17 19 15 12 15 4 4 4 4 1 1 2 3 5 6 14 11 14 12 10 13 7 7 11 15 18 16 7 7 18 17 18 13 18 16 12 11
1 2 5 8 11 13 15 16 16 17 18 19 13 8 7 4 5 5 2 3 2 6 5 8 8 10 9 13 11 14 14 13 9 10 14 14 15 14 8 19 12 12 12 7 5 5 4
1 2 4 7 11 13 14 16 16 18 17 18 13 10 8 6 7 3 3 3 9 5 6 8 10 10 8 11 9 14 11 6 13 11 9 9 12 12 22 18 10 13 11 5 5 6 11
2 2 3 7 9 12 15 16 18 18 17 16 9 2 3 9 10 3 3 7 5 4 5 8 12 5 6 12 6 12 12 5 5 9 4 6 7 25 19 10 11 9 9 11 3 6 7
4 1 2 6 8 11 14 17 18 19 18 12 1 1 4 15 13 2 4 6 5 5 5 6 5 4 9 12 10 13 8 11 7 11 8 4 14 10 14 14 4 5 6 6 5 5 6
6 2 3 5 7 11 14 16 18 21 20 8 2 0 7 14 6 6 5 5 6 6 5 5 6 6 10 10 13 12 6 8 10 11 9 9 5 10 13 9 11 7 6 6 3 4 3
7 4 2 3 6 9 12 15 18 20 22 4 2 3 7 8 5 4 4 3 1 5 4 3 4 6 7 9 5 8 7 8 13 12 8 6 4 5 2 9 15 15 5 5 2 7 3
8 6 3 1 5 9 12 15 17 18 16 4 3 2 5 4 4 5 6 6 4 5 4 6 4 6 9 5 4 8 9 12 18 13 12 8 3 5 3 4 5 7 11 8 6 3 3
9 7 4 1 4 9 11 14 16 17 14 3 3 2 3 5 6 9 7 5 3 5 2 4 2 6 6 5 5 7 9 13 11 11 15 8 2 3 3 3 6 4 11 13 5 3 7
9 7 5 1 4 8 10 13 14 16 11 3 3 2 1 2 5 8 7 3 3 3 5 6 5 8 3 1 6 6 6 10 8 12 7 5 3 3 4 5 9 7 8 10 9 7 2
10 7 5 3 4 7 9 11 12 14 13 4 3 4 4 3 5 8 4 1 3 3 3 3 3 6 6 3 2 5 8 2 3 9 8 8 4 2 4 7 5 4 9 4 5 6 3
10 8 6 3 3 5 7 9 12 11 5 3 0 2 4 4 3 3 2 2 1 3 1 6 1 3 3 5 5 4 5 5 4 2 4 4 2 2 1 7 4 1 3 5 6 2 2
10 9 6 3 1 3 4 7 11 10 6 3 3 3 3 2 3 4 3 1 1 2 1 3 5 4 3 5 1 5 5 4 5 1 2 2 2 3 2 2 1 3 4 4 6 6 3
11 9 6 3 2 1 3 8 11 12 15 6 3 3 3 4 6 6 4 2 4 3 1 1 3 3 5 3 2 2 3 0 3 5 1 5 0 3 2 2 1 2 1 1 4 6 6
12 9 7 5 4 3 4 8 10 11 13 5 5 3 4 8 1 3 3 2 1 1 3 3 4 5 3 3 2 0 2 2 5 11 5 5 3 5 5 2 1 5 3 5 5 5 5
12 10 8 7 6 4 7 7 7 7 10 5 4 6 5 7 1 2 2 3 2 1 2 2 3 4 2 2 3 1 1 3 2 3 6 5 5 3 4 1 5 4 5 5 7 8 2
12 11 9 9 8 9 7 8 10 11 6 6 3 5 4 5 2 2 2 2 3 1 1 2 2 3 3 3 2 1 1 2 2 3 4 3 2 2 3 4 6 7 3 6 7 3 5
13 11 10 10 9 7 10 10 9 10 9 6 4 5 9 8 4 4 4 4 4 3 1 1 4 1 1 3 1 3 2 3 3 3 2 2 7 4 7 7 5 7 8 5 6 6 4
Wind_Direction
16 13 11 8 6 5 3 3 359 355 354 353 350 348 347 344 340 340 341 338 338 342 340 336 240 221 243 149 36 354 337 329 308 264 208 226 232 240 238 245 233 245 253 254 259 263 270
9 13 12 6 6 3 3 1 359 355 354 353 351 348 345 344 342 341 347 349 354 2 21 46 157 182 250 80 331 356 349 323 316 310 277 235 235 248 266 269 252 273 283 272 267 277 275
7 7 8 7 5 0 2 0 357 354 354 353 351 349 345 342 341 341 349 352 10 29 55 90 167 218 60 52 360 358 358 341 347 314 298 280 270 263 284 293 255 279 278 279 272 277 270
8 5 5 4 1 1 359 359 357 355 354 353 350 348 344 343 341 339 345 346 359 18 33 98 207 273 81 37 11 7 357 344 334 299 269 288 298 292 275 286 292 291 283 277 223 246 247
8 3 1 358 4 358 359 358 357 356 354 351 348 346 344 346 342 337 337 318 311 297 293 266 265 279 49 15 6 8 357 336 315 331 245 256 48 251 312 286 284 238 269 273 286 280 273
5 5 358 356 359 0 358 357 356 355 353 350 346 346 344 347 344 334 328 210 301 337 242 253 10 92 31 352 340 10 348 337 356 318 286 208 227 258 236 200 261 289 268 281 295 314 334
352 4 354 356 358 1 358 357 357 354 353 350 346 343 344 350 349 355 349 194 342 57 35 71 56 60 3 342 39 23 350 331 331 354 4 320 305 277 282 87 231 301 310 316 325 307 322
349 352 356 353 359 357 359 357 357 355 354 350 346 343 342 348 335 10 14 60 53 286 75 64 59 30 1 335 13 24 4 7 351 1 359 357 294 10 346 320 309 301 302 305 302 354 345
340 355 354 357 354 356 357 358 357 356 354 351 348 342 336 338 307 308 70 35 326 208 220 77 66 24 1 331 43 14 6 351 343 9 352 314 323 354 342 327 310 325 324 333 325 314 283
339 354 1 352 353 353 355 358 359 356 354 351 348 341 339 326 256 324 61 3 333 265 175 33 16 8 0 319 31 14 356 357 350 0 329 309 358 343 322 330 20 336 321 306 311 323 308
345 346 2 347 352 352 354 357 1 357 356 350 348 347 346 353 329 44 330 332 250 262 142 27 23 295 338 38 1 6 330 350 13 356 332 346 340 320 355 322 337 292 331 319 288 274 273
312 14 356 348 353 355 352 359 0 355 355 352 352 344 353 350 94 24 352 249 237 209 48 28 33 348 8 28 18 347 356 34 46 358 351 337 309 344 348 356 320 317 338 311 289 267 258
217 15 358 353 357 355 354 355 355 356 356 349 345 324 356 50 331 347 310 206 268 55 351 9 342 328 14 16 7 4 357 38 45 353 350 327 337 332 37 333 316 337 332 310 289 282 309
229 39 3 357 355 356 355 350 355 357 352 345 329 317 6 51 326 343 246 254 60 51 21 355 330 319 23 20 1 357 346 18 51 30 315 349 328 11 333 305 304 315 286 279 293 329 302
195 64 354 7 355 357 354 348 354 356 351 339 314 208 38 336 331 320 296 48 39 26 5 329 311 358 357 6 358 350 340 37 70 53 49 304 301 315 307 309 323 323 293 305 253 278 283
175 123 6 12 357 359 354 349 354 355 351 341 240 236 20 335 330 262 61 92 95 38 344 324 6 12 328 347 1 340 319 46 16 25 0 296 304 294 301 335 8 282 12 4 8 314 325
166 189 50 8 357 4 350 352 359 356 348 333 288 158 343 336 323 41 67 71 89 42 17 348 360 313 339 6 343 320 313 64 26 354 340 316 241 293 319 19 357 12 23 349 268 217 257
170 173 89 12 355 1 349 357 4 360 346 331 350 56 321 331 51 46 54 50 28 13 1 1 295 1 13 351 314 311 8 17 6 352 339 6 300 286 42 117 87 68 24 11 331 333 312
180 164 130 21 355 349 353 1 7 5 12 328 64 51 324 353 79 76 110 103 75 24 24 23 17 355 17 329 343 354 355 27 6 22 354 354 323 318 203 170 64 50 21 354 291 220 274
185 166 182 122 348 344 355 1 8 5 358 323 91 98 52 35 25 101 108 63 61 65 66 16 31 49 11 341 337 300 350 5 333 19 354 347 341 30 330 357 324 17 18 6 344 1 329
182 180 198 168 328 342 354 0 6 0 349 350 30 66 0 48 61 73 64 24 49 32 22 44 18 50 334 280 340 5 358 336 343 4 14 44 301 87 85 67 70 64 27 25 36 5 49
184 190 195 194 317 350 357 356 5 355 335 57 119 134 49 84 106 90 61 11 42 359 14 17 59 355 329 90 88 290 316 339 52 328 360 346 308 123 206 151 119 80 24 20 50 350 16
180 194 190 197 341 1 359 8 8 0 332 102 33 96 103 179 119 113 93 88 91 22 39 77 344 12 28 21 328 329 59 63 110 46 323 12 323 242 87 177 201 199 329 354 321 106 260
177 191 177 182 47 23 7 37 26 16 11 103 100 103 112 127 83 88 122 105 11 2 167 325 53 91 59 341 216 84 77 104 101 0 56 358 357 276 119 112 286 231 199 234 269 235 222
177 175 175 156 138 84 49 60 53 60 65 70 31 101 112 105 111 125 99 70 122 99 223 252 59 30 318 266 241 244 183 75 235 205 5 139 226 329 109 81 123 266 324 32 94 290 173
181 175 168 166 171 159 111 91 83 83 95 76 31 16 88 120 49 62 109 49 71 45 154 158 78 296 280 250 211 26 35 308 308 339 80 1 143 109 358 11 321 227 127 119 84 301 199
175 174 169 170 178 161 117 126 92 87 92 92 55 346 86 104 69 353 169 132 170 145 253 118 358 340 230 296 68 10 132 146 312 313 334 336 352 105 341 331 291 190 123 88 63 251 172
178 172 172 175 177 139 119 113 116 118 79 80 58 357 98 92 72 48 92 161 134 229 162 262 48 319 331 64 65 147 74 191 93 196 173 178 101 329 342 34 317 147 108 142 214 238 194
175 172 175 177 159 151 140 135 119 120 112 98 91 61 58 74 134 87 95 115 117 169 98 175 150 358 181 87 20 88 190 124 148 271 23 349 185 204 168 222 221 202 198 214 171 200 239